| time (UTC) | temp F | wind direction | speed MPH | gust MPH | rain 1hr in | rain 24hr in | rain mn in | humidity % | barometer mb |
| 20260508041504 | 60 | 0 | 0.0 | 0.0 | 0.00 | 0.00 | 0.00 | 85 | 1016.1 |
| 20260508040504 | 60 | 0 | 0.0 | 0.0 | 0.00 | 0.00 | 0.00 | 84 | 1016.2 |
| 20260508040004 | 60 | 0 | 0.0 | 0.0 | 0.00 | 0.00 | 0.00 | 83 | 1016.1 |
| 20260508035503 | 61 | 0 | 0.0 | 0.0 | 0.00 | 0.00 | 0.00 | 83 | 1016.2 |
| 20260508035004 | 61 | 0 | 0.0 | 0.0 | 0.00 | 0.00 | 0.00 | 83 | 1016.4 |
| 20260508034504 | 61 | 0 | 0.0 | 0.0 | 0.00 | 0.00 | 0.00 | 83 | 1016.5 |
| 20260508034003 | 61 | 0 | 0.0 | 0.0 | 0.00 | 0.00 | 0.00 | 83 | 1016.7 |
| 20260508033503 | 61 | 0 | 0.0 | 0.0 | 0.00 | 0.00 | 0.00 | 83 | 1016.7 |
| 20260508033004 | 61 | 0 | 0.0 | 0.0 | 0.00 | 0.00 | 0.00 | 83 | 1016.7 |
| 20260508032504 | 61 | 0 | 0.0 | 0.0 | 0.00 | 0.00 | 0.00 | 82 | 1017.1 |
| 20260508032003 | 61 | 0 | 0.0 | 0.0 | 0.00 | 0.00 | 0.00 | 82 | 1017.0 |
| 20260508031504 | 61 | 0 | 0.0 | 0.0 | 0.00 | 0.00 | 0.00 | 82 | 1016.8 |
| 20260508031004 | 62 | 0 | 0.0 | 0.0 | 0.00 | 0.00 | 0.00 | 81 | 1016.8 |
| 20260508030004 | 62 | 0 | 0.0 | 2.0 | 0.00 | 0.00 | 0.00 | 80 | 1016.0 |
| 20260508025503 | 62 | 0 | 0.0 | 2.0 | 0.00 | 0.00 | 0.00 | 80 | 1016.0 |
| 20260508025004 | 62 | 0 | 0.0 | 0.0 | 0.00 | 0.00 | 0.00 | 80 | 1015.9 |
| 20260508024504 | 62 | 0 | 0.0 | 2.0 | 0.00 | 0.00 | 0.00 | 80 | 1015.6 |
| 20260508023004 | 62 | 77 | 1.0 | 4.0 | 0.00 | 0.00 | 0.00 | 79 | 1015.2 |
| 20260508022504 | 62 | 76 | 1.0 | 4.0 | 0.00 | 0.00 | 0.00 | 79 | 1014.6 |
| 20260508022004 | 62 | 76 | 1.0 | 3.0 | 0.00 | 0.00 | 0.00 | 79 | 1014.5 |
| 20260508021503 | 62 | 76 | 1.0 | 3.0 | 0.00 | 0.00 | 0.00 | 79 | 1014.4 |
| 20260508021004 | 62 | 0 | 0.0 | 3.0 | 0.00 | 0.00 | 0.00 | 78 | 1014.3 |
| 20260508020504 | 62 | 0 | 0.0 | 3.0 | 0.00 | 0.00 | 0.00 | 78 | 1014.5 |
| 20260508020004 | 62 | 0 | 0.0 | 3.0 | 0.00 | 0.00 | 0.00 | 78 | 1014.6 |
| 20260508015004 | 62 | 75 | 1.0 | 3.0 | 0.00 | 0.00 | 0.00 | 77 | 1014.7 |
| 20260508014504 | 63 | 0 | 0.0 | 3.0 | 0.00 | 0.00 | 0.00 | 77 | 1014.7 |
| 20260508013504 | 63 | 74 | 1.0 | 4.0 | 0.00 | 0.00 | 0.00 | 76 | 1014.5 |
| 20260508013004 | 63 | 0 | 0.0 | 4.0 | 0.00 | 0.00 | 0.00 | 76 | 1014.6 |
| 20260508012504 | 63 | 70 | 1.0 | 4.0 | 0.00 | 0.00 | 0.00 | 75 | 1014.6 |
| 20260508012003 | 63 | 70 | 1.0 | 4.0 | 0.00 | 0.00 | 0.00 | 75 | 1014.5 |
| 20260508011504 | 63 | 68 | 1.0 | 3.0 | 0.00 | 0.00 | 0.00 | 75 | 1014.4 |
| 20260508010503 | 64 | 68 | 1.0 | 3.0 | 0.00 | 0.00 | 0.00 | 74 | 1015.2 |
| 20260508010003 | 64 | 68 | 1.0 | 4.0 | 0.00 | 0.00 | 0.00 | 73 | 1014.7 |
| 20260508005504 | 64 | 63 | 1.0 | 5.0 | 0.00 | 0.00 | 0.00 | 72 | 1015.4 |
| 20260508004503 | 64 | 57 | 1.0 | 6.0 | 0.00 | 0.00 | 0.00 | 72 | 1015.2 |
| 20260508004003 | 64 | 62 | 1.0 | 6.0 | 0.00 | 0.00 | 0.00 | 72 | 1015.1 |
| 20260508003504 | 65 | 0 | 0.0 | 2.0 | 0.00 | 0.00 | 0.00 | 73 | 1015.2 |
| 20260508003004 | 65 | 70 | 1.0 | 5.0 | 0.00 | 0.00 | 0.00 | 73 | 1015.2 |
| 20260508002003 | 65 | 69 | 1.0 | 4.0 | 0.00 | 0.00 | 0.00 | 73 | 1015.7 |
| 20260508000504 | 66 | 0 | 0.0 | 3.0 | 0.00 | 0.00 | 0.00 | 72 | 1015.8 |
| 20260508000003 | 66 | 0 | 0.0 | 3.0 | 0.00 | 0.00 | 0.00 | 72 | 1016.0 |
| 20260507235504 | 66 | 0 | 0.0 | 1.0 | 0.00 | 0.00 | 0.00 | 72 | 1016.2 |
| 20260507235004 | 66 | 0 | 0.0 | 2.0 | 0.00 | 0.00 | 0.00 | 71 | 1016.1 |
| 20260507234503 | 66 | 0 | 0.0 | 2.0 | 0.00 | 0.00 | 0.00 | 71 | 1016.2 |
| 20260507233504 | 66 | 0 | 0.0 | 2.0 | 0.00 | 0.00 | 0.00 | 71 | 1016.1 |
| 20260507233004 | 66 | 0 | 0.0 | 0.0 | 0.00 | 0.00 | 0.00 | 72 | 1016.3 |
| 20260507232503 | 66 | 0 | 0.0 | 0.0 | 0.00 | 0.00 | 0.00 | 71 | 1016.3 |
| 20260507232003 | 66 | 0 | 0.0 | 4.0 | 0.00 | 0.00 | 0.00 | 71 | 1016.2 |
| 20260507231504 | 66 | 66 | 1.0 | 4.0 | 0.00 | 0.00 | 0.00 | 71 | 1015.9 |
| 20260507230503 | 66 | 0 | 0.0 | 2.0 | 0.00 | 0.00 | 0.00 | 71 | 1016.1 |
| 20260507230004 | 66 | 0 | 0.0 | 2.0 | 0.00 | 0.00 | 0.00 | 71 | 1016.2 |
| 20260507225504 | 66 | 0 | 0.0 | 4.0 | 0.00 | 0.00 | 0.00 | 72 | 1016.3 |
| 20260507224504 | 66 | 0 | 0.0 | 4.0 | 0.00 | 0.00 | 0.00 | 70 | 1016.1 |
| 20260507224003 | 67 | 0 | 0.0 | 3.0 | 0.00 | 0.00 | 0.00 | 70 | 1016.1 |
| 20260507223504 | 66 | 0 | 0.0 | 4.0 | 0.00 | 0.00 | 0.00 | 72 | 1016.2 |
| 20260507223004 | 66 | 0 | 0.0 | 4.0 | 0.00 | 0.00 | 0.00 | 71 | 1016.5 |
| 20260507222503 | 67 | 0 | 0.0 | 2.0 | 0.00 | 0.00 | 0.00 | 71 | 1016.4 |
| 20260507221004 | 67 | 0 | 0.0 | 3.0 | 0.00 | 0.00 | 0.00 | 71 | 1016.9 |
| 20260507220003 | 67 | 0 | 0.0 | 7.0 | 0.00 | 0.00 | 0.00 | 71 | 1016.6 |
| 20260507215504 | 67 | 0 | 0.0 | 7.0 | 0.00 | 0.00 | 0.00 | 71 | 1016.6 |
| 20260507215004 | 67 | 0 | 0.0 | 2.0 | 0.00 | 0.00 | 0.00 | 71 | 1016.8 |
| 20260507214504 | 67 | 0 | 0.0 | 2.0 | 0.00 | 0.00 | 0.00 | 70 | 1017.0 |
| 20260507214004 | 67 | 0 | 0.0 | 3.0 | 0.00 | 0.00 | 0.00 | 70 | 1017.0 |
| 20260507213503 | 68 | 0 | 0.0 | 5.0 | 0.00 | 0.00 | 0.00 | 70 | 1016.9 |
| 20260507212504 | 66 | 57 | 1.0 | 5.0 | 0.00 | 0.00 | 0.00 | 73 | 1017.0 |
| 20260507212004 | 66 | 53 | 1.0 | 4.0 | 0.00 | 0.00 | 0.00 | 74 | 1016.7 |
| 20260507211503 | 66 | 52 | 1.0 | 4.0 | 0.00 | 0.00 | 0.00 | 72 | 1016.6 |
| 20260507211004 | 65 | 50 | 1.0 | 5.0 | 0.00 | 0.00 | 0.00 | 74 | 1016.2 |
| 20260507210504 | 65 | 0 | 0.0 | 5.0 | 0.00 | 0.00 | 0.00 | 74 | 1016.6 |
| 20260507210004 | 65 | 68 | 1.0 | 3.0 | 0.00 | 0.00 | 0.00 | 74 | 1017.0 |
| 20260507205503 | 65 | 69 | 1.0 | 4.0 | 0.00 | 0.00 | 0.00 | 73 | 1016.8 |
| 20260507205004 | 65 | 71 | 1.0 | 5.0 | 0.00 | 0.00 | 0.00 | 72 | 1017.0 |
| 20260507204504 | 65 | 75 | 1.0 | 5.0 | 0.00 | 0.00 | 0.00 | 72 | 1017.4 |
| 20260507203504 | 65 | 0 | 0.0 | 3.0 | 0.00 | 0.00 | 0.00 | 73 | 1017.2 |
| 20260507203004 | 65 | 0 | 0.0 | 3.0 | 0.00 | 0.00 | 0.00 | 73 | 1017.5 |
| 20260507202004 | 65 | 0 | 0.0 | 7.0 | 0.00 | 0.00 | 0.00 | 73 | 1017.5 |
| 20260507201004 | 65 | 59 | 1.0 | 4.0 | 0.00 | 0.00 | 0.00 | 74 | 1017.6 |
| 20260507200003 | 65 | 0 | 0.0 | 3.0 | 0.00 | 0.00 | 0.00 | 75 | 1017.7 |
| 20260507195004 | 64 | 0 | 0.0 | 4.0 | 0.00 | 0.00 | 0.00 | 74 | 1017.6 |
| 20260507194503 | 64 | 68 | 1.0 | 4.0 | 0.00 | 0.00 | 0.00 | 74 | 1017.8 |
| 20260507193503 | 64 | 74 | 1.0 | 4.0 | 0.00 | 0.00 | 0.00 | 74 | 1018.1 |
| 20260507193004 | 64 | 81 | 1.0 | 6.0 | 0.00 | 0.00 | 0.00 | 74 | 1018.2 |
| 20260507192503 | 64 | 81 | 1.0 | 6.0 | 0.00 | 0.00 | 0.00 | 75 | 1018.0 |
| 20260507192003 | 64 | 85 | 1.0 | 5.0 | 0.00 | 0.00 | 0.00 | 75 | 1018.2 |
| 20260507191504 | 63 | 96 | 1.0 | 6.0 | 0.00 | 0.00 | 0.00 | 76 | 1018.3 |
| 20260507191004 | 63 | 90 | 2.0 | 7.0 | 0.00 | 0.00 | 0.00 | 75 | 1018.3 |
| 20260507190504 | 63 | 80 | 2.0 | 7.0 | 0.00 | 0.00 | 0.00 | 75 | 1018.1 |
| 20260507190005 | 63 | 74 | 2.0 | 7.0 | 0.00 | 0.00 | 0.00 | 74 | 1018.3 |
| 20260507185504 | 63 | 64 | 1.0 | 7.0 | 0.00 | 0.00 | 0.00 | 75 | 1018.0 |
| 20260507185003 | 63 | 70 | 1.0 | 6.0 | 0.00 | 0.00 | 0.00 | 75 | 1017.8 |
| 20260507184504 | 63 | 80 | 1.0 | 6.0 | 0.00 | 0.00 | 0.00 | 75 | 1018.1 |
| 20260507183503 | 63 | 69 | 1.0 | 4.0 | 0.00 | 0.00 | 0.00 | 77 | 1018.2 |
| 20260507183003 | 63 | 56 | 1.0 | 4.0 | 0.00 | 0.00 | 0.00 | 77 | 1018.5 |
| 20260507182504 | 63 | 40 | 1.0 | 4.0 | 0.00 | 0.00 | 0.00 | 77 | 1018.2 |
| 20260507182004 | 63 | 18 | 1.0 | 4.0 | 0.00 | 0.00 | 0.00 | 77 | 1018.0 |
| 20260507181503 | 63 | 38 | 1.0 | 6.0 | 0.00 | 0.00 | 0.00 | 78 | 1018.3 |
| 20260507181004 | 63 | 57 | 2.0 | 6.0 | 0.00 | 0.00 | 0.00 | 77 | 1018.5 |
| 20260507180503 | 63 | 60 | 2.0 | 9.0 | 0.00 | 0.00 | 0.00 | 78 | 1018.3 |
| 20260507180003 | 63 | 58 | 1.0 | 9.0 | 0.00 | 0.00 | 0.00 | 76 | 1018.4 |
| 20260507175504 | 64 | 61 | 1.0 | 7.0 | 0.00 | 0.00 | 0.00 | 77 | 1018.3 |
| 20260507175003 | 63 | 78 | 1.0 | 6.0 | 0.00 | 0.00 | 0.00 | 79 | 1018.4 |
| 20260507174503 | 63 | 87 | 2.0 | 7.0 | 0.00 | 0.00 | 0.00 | 78 | 1018.3 |
| 20260507173504 | 62 | 81 | 1.0 | 6.0 | 0.00 | 0.01 | 0.00 | 82 | 1018.5 |
| 20260507173004 | 62 | 85 | 1.0 | 6.0 | 0.00 | 0.01 | 0.00 | 81 | 1018.9 |
| 20260507172503 | 61 | 96 | 1.0 | 6.0 | 0.00 | 0.01 | 0.00 | 82 | 1018.6 |
| 20260507172004 | 61 | 108 | 1.0 | 8.0 | 0.00 | 0.01 | 0.00 | 83 | 1018.5 |
| 20260507171503 | 60 | 97 | 1.0 | 8.0 | 0.00 | 0.01 | 0.00 | 83 | 1018.1 |
| 20260507171003 | 60 | 62 | 1.0 | 5.0 | 0.00 | 0.01 | 0.00 | 84 | 1018.0 |
| 20260507170503 | 60 | 74 | 1.0 | 6.0 | 0.00 | 0.01 | 0.00 | 84 | 1017.9 |
| 20260507170004 | 60 | 77 | 1.0 | 7.0 | 0.00 | 0.01 | 0.00 | 84 | 1018.2 |
| 20260507165503 | 59 | 65 | 1.0 | 7.0 | 0.00 | 0.01 | 0.00 | 85 | 1018.2 |
| 20260507165003 | 59 | 56 | 1.0 | 4.0 | 0.00 | 0.01 | 0.00 | 85 | 1019.0 |
| 20260507164504 | 59 | 56 | 1.0 | 4.0 | 0.00 | 0.01 | 0.00 | 85 | 1018.2 |
| 20260507164004 | 59 | 56 | 1.0 | 5.0 | 0.00 | 0.01 | 0.00 | 85 | 1018.8 |
| 20260507163503 | 59 | 55 | 1.0 | 5.0 | 0.00 | 0.01 | 0.00 | 85 | 1018.7 |
| 20260507163003 | 59 | 54 | 1.0 | 5.0 | 0.00 | 0.01 | 0.00 | 85 | 1019.1 |
| 20260507162504 | 59 | 54 | 1.0 | 5.0 | 0.00 | 0.01 | 0.00 | 85 | 1019.6 |
| 20260507162004 | 59 | 0 | 0.0 | 3.0 | 0.00 | 0.01 | 0.00 | 84 | 1020.0 |
| 20260507161503 | 59 | 0 | 0.0 | 5.0 | 0.00 | 0.01 | 0.00 | 85 | 1020.3 |
| 20260507161004 | 58 | 54 | 1.0 | 5.0 | 0.00 | 0.01 | 0.00 | 85 | 1020.3 |
| 20260507160504 | 58 | 54 | 1.0 | 3.0 | 0.00 | 0.01 | 0.00 | 84 | 1019.9 |
| 20260507160003 | 59 | 54 | 1.0 | 3.0 | 0.00 | 0.01 | 0.00 | 85 | 1019.6 |
| 20260507155503 | 59 | 51 | 1.0 | 5.0 | 0.00 | 0.01 | 0.00 | 85 | 1019.5 |
| 20260507155004 | 59 | 57 | 1.0 | 5.0 | 0.00 | 0.01 | 0.00 | 86 | 1019.5 |
| 20260507154003 | 59 | 73 | 1.0 | 5.0 | 0.00 | 0.03 | 0.00 | 85 | 1019.7 |
| 20260507153504 | 59 | 72 | 1.0 | 5.0 | 0.00 | 0.03 | 0.00 | 86 | 1019.7 |
| 20260507153004 | 59 | 70 | 1.0 | 4.0 | 0.00 | 0.04 | 0.00 | 86 | 1019.6 |
| 20260507152503 | 58 | 69 | 1.0 | 5.0 | 0.00 | 0.04 | 0.00 | 87 | 1019.4 |
| 20260507152003 | 58 | 0 | 0.0 | 5.0 | 0.00 | 0.04 | 0.00 | 87 | 1019.1 |
| 20260507150504 | 58 | 64 | 1.0 | 4.0 | 0.00 | 0.04 | 0.00 | 88 | 1019.4 |
| 20260507150004 | 58 | 0 | 0.0 | 2.0 | 0.00 | 0.04 | 0.00 | 88 | 1019.6 |
| 20260507145503 | 58 | 0 | 0.0 | 3.0 | 0.00 | 0.04 | 0.00 | 88 | 1019.5 |
| 20260507145004 | 58 | 0 | 0.0 | 3.0 | 0.00 | 0.04 | 0.00 | 88 | 1019.8 |
| 20260507144503 | 58 | 0 | 0.0 | 3.0 | 0.00 | 0.04 | 0.00 | 89 | 1019.8 |
| 20260507144003 | 58 | 0 | 0.0 | 2.0 | 0.00 | 0.04 | 0.00 | 89 | 1019.3 |
| 20260507143004 | 58 | 61 | 1.0 | 7.0 | 0.00 | 0.04 | 0.00 | 89 | 1019.1 |
| 20260507142504 | 58 | 62 | 1.0 | 4.0 | 0.00 | 0.04 | 0.00 | 89 | 1019.0 |
| 20260507142003 | 58 | 66 | 1.0 | 4.0 | 0.00 | 0.04 | 0.00 | 89 | 1018.9 |
| 20260507141503 | 58 | 69 | 1.0 | 4.0 | 0.00 | 0.04 | 0.00 | 90 | 1019.1 |
| 20260507140503 | 58 | 69 | 1.0 | 7.0 | 0.00 | 0.04 | 0.00 | 90 | 1019.0 |
| 20260507140003 | 58 | 68 | 1.0 | 5.0 | 0.00 | 0.04 | 0.00 | 90 | 1018.8 |
| 20260507135503 | 58 | 68 | 1.0 | 5.0 | 0.00 | 0.04 | 0.00 | 90 | 1018.8 |
| 20260507135004 | 58 | 68 | 1.0 | 5.0 | 0.00 | 0.04 | 0.00 | 90 | 1018.8 |
| 20260507134003 | 57 | 61 | 1.0 | 7.0 | 0.00 | 0.04 | 0.00 | 90 | 1018.4 |
| 20260507133004 | 58 | 50 | 1.0 | 9.0 | 0.00 | 0.04 | 0.00 | 90 | 1018.6 |
| 20260507132504 | 58 | 61 | 1.0 | 6.0 | 0.00 | 0.04 | 0.00 | 90 | 1018.6 |
| 20260507132003 | 57 | 58 | 1.0 | 6.0 | 0.00 | 0.04 | 0.00 | 90 | 1018.6 |
| 20260507131504 | 57 | 66 | 1.0 | 6.0 | 0.00 | 0.04 | 0.00 | 90 | 1018.5 |
| 20260507131004 | 57 | 69 | 1.0 | 5.0 | 0.00 | 0.04 | 0.00 | 90 | 1018.6 |
| 20260507130503 | 57 | 0 | 0.0 | 5.0 | 0.00 | 0.04 | 0.00 | 90 | 1018.6 |
| 20260507130004 | 57 | 0 | 0.0 | 3.0 | 0.00 | 0.04 | 0.00 | 90 | 1018.7 |
| 20260507125503 | 57 | 0 | 0.0 | 3.0 | 0.00 | 0.04 | 0.00 | 90 | 1018.8 |
| 20260507124503 | 57 | 0 | 0.0 | 3.0 | 0.00 | 0.04 | 0.00 | 90 | 1018.4 |
| 20260507124004 | 57 | 82 | 1.0 | 6.0 | 0.00 | 0.04 | 0.00 | 90 | 1018.6 |
| 20260507123003 | 57 | 73 | 1.0 | 7.0 | 0.00 | 0.04 | 0.00 | 90 | 1018.5 |
| 20260507122503 | 58 | 70 | 1.0 | 7.0 | 0.00 | 0.04 | 0.00 | 90 | 1018.6 |
| 20260507122004 | 58 | 0 | 0.0 | 7.0 | 0.00 | 0.04 | 0.00 | 90 | 1018.5 |
| 20260507121504 | 58 | 0 | 0.0 | 4.0 | 0.00 | 0.04 | 0.00 | 90 | 1018.3 |
| 20260507121003 | 58 | 0 | 0.0 | 2.0 | 0.00 | 0.04 | 0.00 | 90 | 1018.2 |
| 20260507120504 | 58 | 85 | 1.0 | 5.0 | 0.00 | 0.04 | 0.00 | 90 | 1017.9 |
| 20260507115503 | 58 | 0 | 0.0 | 5.0 | 0.00 | 0.04 | 0.00 | 90 | 1017.6 |
| 20260507115003 | 58 | 84 | 1.0 | 5.0 | 0.00 | 0.04 | 0.00 | 90 | 1017.7 |
| 20260507114504 | 58 | 84 | 1.0 | 3.0 | 0.00 | 0.04 | 0.00 | 90 | 1017.4 |
| 20260507114004 | 58 | 84 | 1.0 | 5.0 | 0.00 | 0.04 | 0.00 | 90 | 1017.7 |
| 20260507113503 | 58 | 84 | 1.0 | 6.0 | 0.00 | 0.04 | 0.00 | 90 | 1017.4 |
| 20260507113004 | 58 | 84 | 1.0 | 6.0 | 0.00 | 0.04 | 0.00 | 90 | 1017.4 |
| 20260507112503 | 58 | 0 | 0.0 | 6.0 | 0.00 | 0.04 | 0.00 | 90 | 1017.5 |
| 20260507112003 | 58 | 0 | 0.0 | 6.0 | 0.00 | 0.04 | 0.00 | 90 | 1017.6 |
| 20260507111504 | 58 | 139 | 1.0 | 5.0 | 0.00 | 0.04 | 0.00 | 90 | 1017.6 |
| 20260507111004 | 58 | 134 | 1.0 | 5.0 | 0.00 | 0.04 | 0.00 | 90 | 1017.7 |
| 20260507110503 | 58 | 0 | 0.0 | 3.0 | 0.00 | 0.04 | 0.00 | 90 | 1017.5 |
| 20260507110004 | 58 | 0 | 0.0 | 3.0 | 0.00 | 0.04 | 0.00 | 90 | 1017.7 |
| 20260507105504 | 58 | 146 | 1.0 | 3.0 | 0.00 | 0.04 | 0.00 | 90 | 1017.6 |
| 20260507105003 | 58 | 153 | 1.0 | 4.0 | 0.00 | 0.04 | 0.00 | 90 | 1017.6 |
| 20260507104004 | 58 | 148 | 1.0 | 5.0 | 0.00 | 0.04 | 0.00 | 90 | 1017.7 |
| 20260507103504 | 58 | 105 | 1.0 | 5.0 | 0.00 | 0.04 | 0.00 | 90 | 1017.5 |
| 20260507102503 | 58 | 41 | 1.0 | 6.0 | 0.00 | 0.05 | 0.00 | 89 | 1016.9 |
| 20260507102006 | 58 | 49 | 1.0 | 4.0 | 0.00 | 0.05 | 0.00 | 89 | 1017.3 |
| 20260507101504 | 58 | 0 | 0.0 | 3.0 | 0.00 | 0.05 | 0.00 | 89 | 1017.0 |
| 20260507101003 | 58 | 0 | 0.0 | 2.0 | 0.00 | 0.05 | 0.00 | 89 | 1017.0 |
| 20260507100503 | 58 | 0 | 0.0 | 7.0 | 0.00 | 0.05 | 0.00 | 89 | 1016.9 |
| 20260507100004 | 58 | 0 | 0.0 | 7.0 | 0.00 | 0.05 | 0.00 | 89 | 1017.0 |
| 20260507095503 | 58 | 0 | 0.0 | 3.0 | 0.00 | 0.05 | 0.00 | 89 | 1017.1 |
| 20260507095003 | 58 | 0 | 0.0 | 4.0 | 0.00 | 0.05 | 0.00 | 89 | 1017.3 |
| 20260507094503 | 58 | 0 | 0.0 | 4.0 | 0.00 | 0.05 | 0.00 | 89 | 1017.5 |
| 20260507094004 | 58 | 0 | 0.0 | 3.0 | 0.00 | 0.05 | 0.00 | 89 | 1017.3 |
| 20260507093503 | 58 | 0 | 0.0 | 3.0 | 0.00 | 0.05 | 0.00 | 89 | 1017.2 |
| 20260507093003 | 58 | 0 | 0.0 | 3.0 | 0.00 | 0.05 | 0.00 | 89 | 1017.0 |
| 20260507092504 | 58 | 0 | 0.0 | 4.0 | 0.00 | 0.05 | 0.00 | 89 | 1017.1 |
| 20260507092003 | 58 | 0 | 0.0 | 4.0 | 0.00 | 0.05 | 0.00 | 89 | 1017.0 |
| 20260507091503 | 58 | 0 | 0.0 | 3.0 | 0.00 | 0.05 | 0.00 | 89 | 1017.2 |
| 20260507091003 | 58 | 61 | 1.0 | 3.0 | 0.00 | 0.05 | 0.00 | 89 | 1017.0 |
| 20260507090504 | 58 | 60 | 1.0 | 4.0 | 0.00 | 0.05 | 0.00 | 89 | 1016.8 |
| 20260507090004 | 58 | 0 | 0.0 | 4.0 | 0.00 | 0.05 | 0.00 | 89 | 1016.6 |
| 20260507085004 | 58 | 60 | 1.0 | 4.0 | 0.00 | 0.05 | 0.00 | 89 | 1016.2 |
| 20260507084503 | 58 | 59 | 1.0 | 4.0 | 0.00 | 0.05 | 0.00 | 89 | 1016.3 |
| 20260507084003 | 58 | 59 | 1.0 | 4.0 | 0.00 | 0.05 | 0.00 | 89 | 1016.2 |
| 20260507083503 | 59 | 0 | 0.0 | 4.0 | 0.00 | 0.05 | 0.00 | 89 | 1016.4 |
| 20260507083004 | 59 | 58 | 1.0 | 5.0 | 0.00 | 0.05 | 0.00 | 89 | 1016.2 |
| 20260507082503 | 59 | 58 | 1.0 | 5.0 | 0.00 | 0.05 | 0.00 | 89 | 1016.2 |
| 20260507082003 | 59 | 0 | 0.0 | 3.0 | 0.00 | 0.05 | 0.00 | 89 | 1016.3 |
| 20260507081503 | 59 | 0 | 0.0 | 3.0 | 0.00 | 0.05 | 0.00 | 89 | 1016.3 |
| 20260507081004 | 59 | 0 | 0.0 | 3.0 | 0.00 | 0.05 | 0.00 | 88 | 1016.2 |
| 20260507080503 | 59 | 0 | 0.0 | 2.0 | 0.00 | 0.05 | 0.00 | 88 | 1016.3 |
| 20260507075503 | 59 | 0 | 0.0 | 4.0 | 0.00 | 0.05 | 0.00 | 88 | 1015.6 |
| 20260507075004 | 59 | 0 | 0.0 | 4.0 | 0.00 | 0.05 | 0.00 | 88 | 1015.7 |
| 20260507074503 | 59 | 0 | 0.0 | 3.0 | 0.00 | 0.05 | 0.00 | 88 | 1015.9 |
| 20260507073503 | 59 | 0 | 0.0 | 4.0 | 0.00 | 0.05 | 0.00 | 88 | 1016.0 |
| 20260507072504 | 59 | 53 | 1.0 | 4.0 | 0.00 | 0.05 | 0.00 | 88 | 1015.8 |
| 20260507071003 | 59 | 73 | 1.0 | 7.0 | 0.00 | 0.05 | 0.00 | 87 | 1015.8 |
| 20260507070008 | 59 | 65 | 2.0 | 7.0 | 0.00 | 0.05 | 0.00 | 87 | 1016.0 |
| 20260507065503 | 60 | 63 | 1.0 | 7.0 | 0.00 | 0.05 | 0.00 | 87 | 1015.8 |
| 20260507065004 | 60 | 63 | 1.0 | 3.0 | 0.00 | 0.05 | 0.00 | 87 | 1015.8 |
| 20260507064504 | 60 | 63 | 1.0 | 5.0 | 0.00 | 0.05 | 0.00 | 87 | 1015.7 |
| 20260507064003 | 60 | 59 | 1.0 | 5.0 | 0.00 | 0.05 | 0.00 | 87 | 1015.8 |
| 20260507063503 | 60 | 54 | 1.0 | 5.0 | 0.00 | 0.05 | 0.00 | 86 | 1015.3 |
| 20260507063032 | 60 | 50 | 1.0 | 5.0 | 0.00 | 0.05 | 0.00 | 86 | 1015.5 |
| 20260507062504 | 60 | 51 | 1.0 | 4.0 | 0.00 | 0.05 | 0.00 | 86 | 1016.0 |
| 20260507061503 | 60 | 53 | 1.0 | 4.0 | 0.00 | 0.05 | 0.00 | 86 | 1015.8 |
| 20260507060004 | 60 | 52 | 1.0 | 4.0 | 0.00 | 0.05 | 0.00 | 86 | 1016.2 |
| 20260507054503 | 60 | 58 | 1.0 | 6.0 | 0.00 | 0.05 | 0.00 | 86 | 1015.7 |
| 20260507054004 | 60 | 69 | 1.0 | 6.0 | 0.00 | 0.05 | 0.00 | 86 | 1015.7 |
| 20260507053503 | 60 | 71 | 1.0 | 4.0 | 0.00 | 0.05 | 0.00 | 86 | 1015.6 |
| 20260507052503 | 60 | 70 | 1.0 | 5.0 | 0.00 | 0.05 | 0.00 | 86 | 1015.7 |
| 20260507051503 | 61 | 66 | 1.0 | 6.0 | 0.00 | 0.05 | 0.00 | 86 | 1015.6 |
| 20260507051003 | 61 | 68 | 2.0 | 6.0 | 0.00 | 0.05 | 0.00 | 85 | 1015.6 |
| 20260507050004 | 61 | 73 | 1.0 | 8.0 | 0.00 | 0.05 | 0.00 | 85 | 1015.8 |
| 20260507045503 | 61 | 50 | 1.0 | 8.0 | 0.00 | 0.05 | 0.05 | 85 | 1015.8 |
| 20260507045004 | 61 | 35 | 1.0 | 5.0 | 0.00 | 0.05 | 0.05 | 85 | 1015.4 |
| 20260507044503 | 61 | 35 | 1.0 | 5.0 | 0.00 | 0.05 | 0.05 | 85 | 1015.6 |
| 20260507044003 | 61 | 50 | 1.0 | 7.0 | 0.00 | 0.05 | 0.05 | 85 | 1015.9 |
| 20260507043504 | 61 | 60 | 2.0 | 7.0 | 0.00 | 0.05 | 0.05 | 85 | 1015.8 |
| 20260507042504 | 61 | 57 | 1.0 | 7.0 | 0.00 | 0.05 | 0.05 | 86 | 1015.9 |
| 20260507042004 | 61 | 68 | 1.0 | 7.0 | 0.00 | 0.05 | 0.05 | 86 | 1015.7 |